GFSSGP_850_rhum_021.txt.gz
RH
4 5 15 14 11 10 16 19 17 22 23 26 24 22 23 31 38 53 55 56 65 72 81 66 62 64 69 76 79 86 86 84 84 83 80 78 79 82 83 83 78 80 86 83 76 66 63 64 68
16 12 13 10 11 12 15 14 18 20 22 22 21 20 21 30 46 53 54 54 59 66 73 73 60 55 50 50 60 66 70 71 77 76 79 82 81 81 82 80 79 77 74 71 70 67 66 70 77
9 14 10 8 9 11 16 13 20 22 23 22 22 23 27 34 40 46 52 54 57 64 77 42 32 29 27 26 31 34 40 42 44 51 60 65 76 81 80 81 83 84 85 88 81 69 71 73 73
12 9 10 9 13 12 14 18 19 21 24 23 18 25 43 41 42 49 52 50 55 56 33 22 22 22 24 26 28 30 32 34 35 36 38 38 43 53 64 68 71 68 58 49 54 60 60 67 77
11 8 9 10 15 15 16 17 18 18 19 20 19 21 40 54 53 52 48 40 42 43 29 22 23 25 25 24 23 26 34 41 43 45 44 44 43 42 43 45 46 47 50 53 51 50 53 56 56
8 9 10 14 16 17 17 18 17 15 17 18 18 23 42 53 51 54 49 41 41 48 53 25 24 22 22 22 20 28 37 42 45 47 46 44 40 40 42 44 43 40 32 23 22 24 28 40 51
9 9 11 13 16 17 16 15 13 13 15 15 16 20 39 44 52 51 45 40 38 46 52 56 41 26 27 25 20 20 32 48 50 48 45 43 40 40 42 45 43 36 22 20 21 22 23 23 23
7 8 10 11 14 13 9 11 12 12 17 18 19 19 34 45 51 46 43 42 43 48 55 58 60 60 67 59 22 20 25 36 31 38 41 39 42 50 45 50 50 35 29 24 24 23 22 24 24
7 7 8 8 8 8 7 7 8 11 15 16 17 22 26 45 47 46 45 44 48 52 62 59 56 61 62 58 42 36 30 34 46 54 44 58 78 81 82 72 49 41 32 28 30 32 28 26 31
7 6 7 6 6 6 6 6 7 11 11 12 19 23 35 46 47 46 42 44 47 53 55 58 70 65 62 53 65 70 68 71 76 81 86 74 86 83 61 74 66 61 51 44 50 45 37 49 61
6 7 6 6 6 5 5 6 6 7 9 11 14 19 33 41 44 43 41 38 41 48 50 54 82 74 68 63 52 53 57 63 68 82 87 80 86 85 78 78 76 81 80 78 74 71 70 72 73
7 6 5 6 7 7 6 7 7 6 8 10 11 19 30 37 40 40 38 34 37 42 46 56 77 64 31 55 52 54 55 62 64 72 82 78 73 76 78 71 69 65 62 68 70 70 72 85 84
7 7 6 7 8 8 9 8 8 8 9 10 14 20 27 34 36 34 34 34 36 39 43 50 69 92 74 51 59 62 64 63 68 70 72 72 72 74 72 70 67 62 60 61 62 63 66 69 70
10 10 11 11 11 11 11 10 11 10 10 9 14 18 22 25 28 31 35 35 36 38 43 50 62 84 80 57 64 61 66 64 65 61 57 30 51 73 76 69 66 61 55 56 62 65 69 69 63
11 12 12 12 12 12 11 10 10 10 11 11 11 13 18 22 23 26 32 35 36 38 42 50 62 76 81 61 60 54 53 54 54 55 60 54 40 50 43 66 67 63 61 63 65 66 66 68 67
11 11 13 12 12 14 13 13 10 12 13 12 12 13 15 19 22 25 28 31 35 37 40 47 61 76 78 57 56 52 50 54 52 54 57 62 47 41 43 65 64 64 68 68 65 65 65 63 62
10 12 10 14 12 12 12 12 10 13 13 12 12 12 14 17 22 26 34 36 36 36 41 48 62 75 69 61 55 57 59 54 51 55 53 54 64 54 44 45 61 66 68 69 70 65 63 64 63
10 10 11 10 13 10 11 11 11 13 14 13 12 13 13 15 20 31 34 34 34 45 50 53 66 71 68 62 59 49 49 46 48 47 47 58 63 67 70 66 63 66 67 64 62 66 70 69 68
10 12 12 11 13 15 13 13 13 14 14 15 15 16 16 18 31 34 38 39 43 52 55 60 65 68 58 51 46 41 43 43 44 46 56 64 63 65 64 62 59 60 59 60 60 64 67 70 68
14 15 15 15 15 17 15 14 14 15 18 17 18 20 23 27 29 35 41 47 50 51 51 50 50 51 48 42 47 49 47 50 53 56 58 58 59 48 50 51 51 57 57 56 57 61 66 67 67
17 19 22 21 17 16 17 17 16 16 17 18 20 21 22 24 26 31 39 46 52 54 50 48 52 55 58 40 49 50 49 48 47 49 54 55 63 67 65 63 59 66 64 62 59 60 64 68 67
21 21 24 23 21 19 17 21 18 17 18 19 21 23 24 25 29 34 39 47 56 59 57 55 55 55 59 45 52 50 55 55 56 61 61 68 72 65 57 54 58 71 73 72 71 66 74 81 71
23 25 25 25 24 19 18 17 22 16 20 21 24 27 29 31 34 38 43 50 57 63 64 62 55 58 61 55 54 62 62 62 64 66 67 64 52 52 52 54 59 78 80 81 90 95 94 91 92
23 26 24 26 24 31 23 22 23 21 22 23 26 32 35 37 38 40 44 44 51 60 62 59 56 53 57 66 70 72 72 71 62 60 60 54 58 56 56 59 70 81 87 91 94 96 85 82 89
22 25 35 41 38 36 25 22 32 26 25 26 29 34 37 39 40 40 42 43 49 55 57 59 56 58 58 61 63 65 64 66 64 65 62 69 64 60 61 72 83 83 90 97 100 99 99 97 89
27 29 46 44 39 30 26 23 28 25 27 30 30 32 34 37 41 41 44 48 49 53 57 64 65 61 57 61 65 68 74 70 73 71 77 73 67 66 72 83 87 85 89 100 99 95 90 94 96
29 36 29 45 57 51 22 25 28 26 28 29 30 32 36 38 41 40 42 44 49 52 54 61 66 61 60 65 70 76 74 77 77 81 75 70 72 73 76 87 88 99 99 94 92 94 91 92 97
29 28 41 36 60 40 19 19 22 34 30 27 27 29 34 36 40 41 43 46 49 52 57 60 59 58 66 68 70 72 78 78 80 72 73 74 78 79 84 86 93 99 98 94 91 98 98 98 99
29 33 33 28 37 45 38 25 23 24 25 27 26 32 36 39 42 40 42 49 51 55 58 55 56 63 66 66 68 69 70 75 75 72 72 76 79 80 78 82 98 96 97 96 93 95 99 99 99
28 30 30 41 34 39 52 41 22 22 26 29 30 34 38 43 41 43 45 52 54 58 56 56 60 61 63 62 60 63 67 70 70 72 84 89 88 94 96 97 92 99 99 98 100 99 99 98 95

GFSSGP_850_rhum_024.txt.gz
RH
2 4 9 15 16 13 13 16 17 20 22 20 20 19 30 40 45 64 57 62 74 67 64 65 63 59 66 66 67 76 77 80 79 81 81 80 80 82 85 86 83 83 84 84 81 76 69 64 60
4 14 12 13 16 16 16 16 20 20 19 16 19 18 30 41 48 50 52 62 68 89 72 57 51 45 41 44 48 57 67 67 67 68 67 69 75 79 78 81 83 83 79 79 78 76 72 65 61
8 15 11 13 13 14 17 19 23 18 17 18 19 30 30 35 44 48 52 59 65 77 52 35 25 24 24 24 25 30 36 37 40 48 55 58 58 60 67 67 72 72 68 59 46 43 47 50 53
10 13 11 12 13 12 13 19 18 18 20 18 22 32 35 37 46 48 50 56 62 45 23 19 20 21 21 21 23 28 30 34 35 35 36 38 40 42 45 46 44 44 44 46 47 44 43 45 46
18 13 13 13 16 16 15 16 16 18 18 17 19 36 42 46 47 44 44 44 46 21 18 20 21 19 19 19 19 23 34 39 41 42 42 42 42 44 42 43 43 42 40 34 20 17 18 22 37
13 9 14 14 17 16 16 16 15 19 17 15 21 34 44 47 44 39 36 39 44 29 22 22 21 21 21 20 19 24 30 39 42 44 44 41 39 38 39 41 41 38 25 18 19 21 21 20 18
14 14 15 15 17 17 17 14 12 13 14 15 16 32 43 45 47 40 36 38 45 47 30 27 29 34 38 24 18 16 32 41 45 46 44 40 40 42 38 41 42 35 30 22 21 22 22 21 21
9 10 12 13 15 16 11 12 12 12 17 14 19 26 37 47 46 41 37 36 42 48 55 60 61 60 62 61 21 16 21 25 31 32 35 72 82 77 80 65 51 45 38 30 26 27 28 26 24
8 9 12 11 12 9 7 7 8 11 14 14 20 25 37 47 43 39 39 40 44 50 56 55 56 60 59 53 56 56 53 74 70 81 64 83 82 82 80 70 69 61 54 48 45 46 43 37 46
6 10 8 6 6 6 6 6 7 11 11 14 22 30 41 42 42 41 39 41 47 52 56 59 61 56 51 50 61 63 62 67 74 81 77 82 68 82 72 78 76 77 69 68 74 64 68 66 67
6 8 6 5 6 5 5 6 7 8 9 13 17 32 38 40 40 40 37 40 44 48 49 60 61 42 68 49 52 56 58 62 70 82 70 76 77 76 78 73 71 69 66 68 70 71 70 73 70
7 6 5 5 6 5 5 5 6 6 9 10 14 20 35 36 37 38 37 36 37 45 48 60 64 51 33 58 55 53 56 64 65 70 69 45 68 68 56 69 52 63 60 60 63 63 64 66 70
6 5 5 6 7 8 8 6 7 7 9 10 15 20 30 34 36 37 35 33 34 41 43 51 60 77 76 33 59 55 49 64 66 70 64 29 38 38 42 51 59 62 59 56 56 57 59 61 63
7 7 8 8 8 9 8 9 10 7 8 9 14 19 24 30 32 32 32 32 34 36 40 48 60 60 66 61 61 49 59 63 63 62 60 31 36 37 38 43 43 45 59 59 56 61 66 68 69
9 10 10 10 10 10 10 10 10 10 9 9 11 14 19 22 24 28 30 32 32 37 40 46 66 71 71 73 62 54 55 54 55 56 55 55 50 46 39 40 44 54 59 53 52 64 65 64 65
9 10 14 11 10 12 12 14 8 10 10 10 10 11 12 18 20 23 28 31 33 34 40 63 53 63 75 68 58 52 51 53 53 53 56 59 62 55 46 46 58 61 61 55 55 56 64 66 64
11 13 13 14 10 11 12 13 9 11 12 11 11 12 13 14 19 22 27 30 33 34 38 41 50 66 76 69 62 55 54 50 51 54 55 53 59 59 57 50 49 58 60 54 55 66 69 70 70
14 9 10 11 12 9 9 10 10 12 12 12 12 11 12 13 17 29 34 34 35 37 40 46 59 72 70 62 61 50 49 47 47 48 47 50 53 57 63 48 47 46 46 47 47 50 56 58 58
10 10 10 10 12 13 11 11 12 13 13 14 14 14 16 30 35 39 39 41 43 53 58 62 64 68 62 55 49 43 44 44 45 46 52 56 58 59 53 55 59 59 58 58 59 51 39 55 60
12 14 14 13 13 14 13 14 13 14 16 16 17 18 28 30 37 43 48 48 50 50 48 50 51 51 47 47 46 47 49 47 47 48 56 54 55 58 59 64 64 62 65 63 55 54 65 69 71
14 16 22 20 16 14 15 16 16 16 17 20 21 22 24 27 32 39 49 55 54 51 49 51 53 53 47 39 49 48 44 48 48 49 49 55 61 65 61 59 56 54 56 56 57 48 57 71 71
19 21 22 20 20 21 15 22 18 18 19 20 22 23 24 26 31 38 46 55 58 58 56 55 54 56 56 47 48 50 60 59 60 62 64 62 61 58 54 53 53 54 57 61 63 85 83 85 84
21 22 22 22 23 21 17 22 21 18 22 23 25 28 29 32 36 40 47 56 62 61 63 60 54 52 56 63 68 71 72 66 61 64 62 62 60 58 55 56 58 59 62 66 89 93 95 95 82
19 24 22 22 25 43 21 20 31 20 21 25 28 32 35 36 37 40 42 46 54 57 59 60 55 56 57 59 62 64 66 67 67 68 69 69 70 65 60 55 59 63 79 86 89 89 90 90 86
21 25 48 61 52 52 25 26 32 23 23 25 31 35 36 38 39 38 40 43 46 51 55 59 61 62 59 58 61 65 68 74 72 74 75 78 71 67 63 69 75 86 84 77 74 73 81 86 79
26 25 60 56 62 47 23 23 34 25 27 29 30 32 34 36 39 39 41 43 45 49 52 55 60 63 60 60 64 68 72 74 75 72 76 74 73 72 72 86 90 78 79 82 93 99 97 94 97
27 37 24 37 58 60 23 31 26 25 27 27 29 30 33 36 38 39 40 41 45 48 51 55 61 58 57 63 68 68 71 72 70 72 72 71 71 75 80 76 76 94 96 97 99 92 91 85 91
23 22 41 52 64 47 23 22 39 32 31 28 26 27 31 33 37 38 39 41 46 51 54 57 56 56 59 64 66 67 66 66 69 71 70 71 77 74 77 87 88 89 99 100 90 85 80 82 87
26 28 30 26 42 54 52 31 22 25 26 28 26 28 34 37 38 39 42 47 52 54 55 57 56 58 60 62 62 59 59 61 68 72 77 79 79 73 79 84 84 87 95 96 96 87 84 84 78
23 27 28 63 48 57 59 44 22 22 25 27 30 33 36 37 40 43 46 50 51 52 54 56 55 58 61 62 57 54 58 64 74 79 72 82 80 80 86 82 87 78 75 80 89 87 73 72 72

GFSSGP_850_rhum_030.txt.gz
RH
5 2 8 16 20 23 23 20 29 34 50 52 48 55 64 61 60 86 96 84 69 65 70 67 65 64 68 70 73 68 64 65 68 66 62 55 51 55 57 61 64 65 61 61 57 53 45 40 38
2 12 15 16 24 27 33 25 40 40 47 49 49 55 62 78 93 99 95 81 72 64 67 64 62 60 52 44 38 38 38 40 39 38 39 41 41 39 40 42 45 39 37 37 36 35 34 32 36
2 14 15 20 25 28 39 26 29 34 40 40 45 50 51 80 84 93 78 74 68 64 61 56 41 26 19 19 20 23 26 30 33 33 31 31 31 32 33 32 32 33 34 32 26 18 13 13 18
8 15 15 18 20 19 30 26 34 37 42 44 48 52 55 67 76 77 82 74 58 53 34 22 19 19 18 18 20 24 27 29 30 31 32 33 32 26 25 28 31 32 26 15 13 15 15 14 13
17 18 19 18 22 24 22 24 29 44 48 48 46 52 55 64 69 74 71 68 38 21 20 21 19 17 16 15 16 19 24 28 32 34 36 33 27 23 24 29 33 32 26 20 18 18 18 19 19
16 16 20 21 29 22 18 24 42 50 50 49 50 50 59 68 64 62 50 31 17 19 21 20 21 20 16 12 9 16 24 32 36 37 34 27 23 25 28 31 32 33 32 30 26 24 24 24 23
19 22 21 18 19 29 20 20 34 49 48 51 45 51 56 56 54 52 26 18 21 22 24 27 29 25 16 12 11 15 22 26 24 22 26 34 39 39 36 42 45 48 44 43 42 46 42 39 33
15 17 17 15 22 18 15 16 26 31 42 47 40 52 46 47 46 44 29 22 26 47 53 49 35 35 31 17 14 18 23 27 29 35 46 38 35 43 47 43 44 42 46 46 46 37 40 43 51
15 18 19 15 16 14 11 15 18 36 45 35 42 43 39 39 42 40 43 51 57 59 62 57 45 43 52 57 50 51 49 48 42 42 42 38 42 43 38 43 43 45 48 48 46 46 47 48 48
15 18 14 11 12 10 8 12 14 29 45 52 48 45 38 38 38 39 47 52 57 61 62 57 44 42 52 59 63 62 63 56 57 56 47 35 44 58 52 45 40 44 45 48 48 46 48 49 48
11 10 8 8 8 7 8 10 14 36 48 49 51 44 40 38 38 41 44 42 51 55 58 55 37 47 52 55 62 66 67 68 62 69 63 39 46 46 40 43 38 38 39 43 49 49 50 48 47
8 7 7 8 7 7 7 7 10 14 32 32 41 47 42 41 39 39 41 44 54 55 54 57 33 33 48 61 57 58 62 63 67 69 66 38 49 50 40 40 40 41 49 49 50 53 53 50 49
8 7 7 9 8 6 6 8 11 12 27 35 44 42 41 42 40 39 39 42 51 54 54 57 40 27 29 35 52 58 62 63 63 68 66 42 39 45 42 45 47 53 58 58 59 59 58 54 46
6 7 7 8 9 9 10 11 10 16 25 40 40 38 34 36 37 40 40 40 47 51 53 57 50 35 49 42 48 46 49 65 67 65 61 53 41 39 40 44 47 48 53 54 55 57 56 48 48
7 9 10 9 10 10 11 13 14 17 34 41 40 38 35 34 35 37 38 40 40 49 49 59 60 58 48 39 46 61 52 58 60 60 60 58 56 56 53 53 51 50 46 45 45 46 47 48 49
13 16 17 13 12 10 12 17 13 15 32 42 40 38 36 38 39 38 38 40 40 46 51 62 57 53 59 48 43 57 52 63 58 55 56 55 56 59 60 60 60 56 52 46 47 53 54 54 55
20 19 20 16 14 14 15 18 15 10 18 25 31 30 36 39 38 42 39 40 42 46 56 57 63 70 58 52 53 59 58 57 57 56 58 60 63 66 66 61 58 60 57 54 55 58 52 49 44
24 20 21 20 15 14 14 18 19 13 12 18 29 48 51 49 54 52 51 51 51 57 61 67 65 58 68 69 70 63 62 59 55 55 59 62 60 59 57 58 59 61 62 62 62 53 46 40 41
14 21 23 18 15 14 20 23 23 27 40 50 56 57 58 58 60 58 60 62 69 73 68 76 82 79 72 76 70 62 52 48 50 59 60 59 60 61 63 67 66 64 61 56 54 54 50 45 43
22 27 25 20 19 16 23 27 33 36 44 50 54 56 53 53 52 53 52 53 55 63 55 54 52 50 50 48 48 48 49 50 59 64 64 63 63 63 62 61 59 57 56 55 53 48 44 54 56
35 32 28 24 23 21 26 28 37 35 40 46 50 49 46 43 41 44 44 46 45 44 42 40 43 49 49 48 50 50 48 49 50 52 54 56 58 60 63 65 64 63 62 52 36 32 44 68 79
37 27 26 26 31 28 23 41 30 38 42 41 50 51 47 45 42 40 40 40 39 41 43 41 44 50 50 50 51 46 43 52 56 58 63 68 69 70 71 71 68 57 29 34 55 76 81 76 71
30 23 27 27 33 36 35 41 33 40 47 48 49 52 51 46 43 45 46 46 47 49 51 52 50 49 52 56 57 58 60 64 66 68 70 70 70 68 66 67 35 24 40 72 83 80 72 67 80
22 28 43 40 45 61 43 43 43 46 45 48 46 49 47 43 43 44 48 47 48 52 56 58 59 59 61 61 62 60 60 67 72 74 72 69 69 67 57 33 31 51 56 69 70 78 88 85 91
32 50 71 68 77 69 49 56 53 42 42 44 49 45 44 43 42 43 44 46 52 55 58 58 57 59 62 61 60 61 64 67 69 71 69 66 59 50 46 51 69 75 73 77 80 86 86 84 87
31 46 74 57 76 65 44 59 57 47 43 40 39 40 40 41 42 44 49 54 54 53 52 52 53 55 58 60 59 60 64 65 64 62 59 55 59 67 74 79 74 73 79 81 82 88 92 94 80
32 45 36 65 69 75 57 48 40 42 43 41 43 49 49 41 42 44 48 49 51 52 53 55 56 57 58 58 60 63 64 63 61 50 46 56 65 73 53 42 68 66 72 77 74 73 75 76 78
28 29 54 70 60 59 52 55 61 55 50 46 44 41 42 44 44 46 48 50 52 53 56 57 55 56 57 59 61 61 60 57 53 44 43 44 47 55 37 42 51 65 71 65 60 60 59 64 67
37 41 44 49 69 73 79 57 40 48 50 46 40 41 42 44 46 52 54 53 53 53 52 50 53 56 57 56 53 54 56 56 52 52 47 46 54 58 41 59 70 72 69 60 56 59 63 62 61
27 36 48 74 51 81 81 62 42 46 41 39 40 45 48 49 53 55 54 54 54 52 48 51 48 47 48 54 55 53 54 50 53 54 54 56 60 63 46 63 76 70 64 56 57 58 60 61 67

GFSSGP_850_rhum_036.txt.gz
RH
4 3 17 17 18 25 25 21 29 47 59 61 65 66 83 98 81 84 95 75 82 77 77 76 72 69 63 63 66 68 66 62 60 51 38 35 30 31 36 39 38 33 30 30 30 26 23 22 24
3 13 20 16 22 24 30 24 40 58 65 60 58 68 81 95 98 99 100 95 81 76 80 80 74 67 66 67 65 58 50 41 32 29 27 26 29 32 29 24 25 28 27 20 13 11 10 11 13
6 16 15 21 26 24 30 36 55 56 49 50 53 54 70 98 100 100 91 94 78 80 86 81 76 69 60 48 32 29 28 27 29 25 26 29 26 16 20 23 25 22 16 14 15 16 16 16 15
10 18 15 20 20 19 26 52 48 50 44 47 38 62 53 94 81 85 85 84 81 88 83 76 70 46 23 21 24 25 25 26 24 25 27 24 15 18 22 25 26 24 22 20 20 20 21 21 21
17 18 21 21 21 24 21 44 48 50 50 52 35 62 72 86 82 80 80 83 78 79 77 56 31 20 19 21 22 21 22 23 24 28 26 18 18 20 23 25 25 26 28 27 28 32 33 32 28
19 17 24 35 39 33 45 42 48 52 53 50 62 71 88 77 77 77 82 83 80 68 38 23 20 18 16 14 15 18 21 24 27 28 21 25 28 29 31 32 32 31 34 36 30 28 31 37 44
19 23 22 37 39 35 40 40 51 50 48 53 62 83 99 82 78 73 81 82 54 25 20 20 19 15 12 12 14 17 22 25 25 25 33 33 32 33 32 28 28 30 31 30 34 34 34 34 36
17 19 21 24 40 39 27 40 42 41 53 53 54 94 98 86 82 75 68 35 24 22 22 22 17 13 11 13 15 16 19 21 28 35 35 36 36 36 35 31 34 37 37 38 37 39 40 41 41
16 22 23 24 38 36 30 33 42 46 49 46 50 63 71 75 68 48 30 25 25 32 31 24 21 14 13 13 16 22 26 31 37 36 38 45 45 42 41 38 41 41 40 41 44 48 51 51 49
20 24 20 18 21 33 29 30 40 47 52 50 54 62 67 52 42 25 24 24 39 46 46 37 39 36 34 37 36 36 38 31 38 41 42 44 45 44 46 42 42 46 48 53 55 57 58 59 56
18 20 13 12 20 22 24 29 40 50 54 47 55 68 60 32 24 22 22 24 34 50 47 40 43 48 52 43 44 43 40 46 53 55 48 38 41 46 47 47 44 47 48 52 55 57 57 58 58
14 12 9 9 16 15 30 26 44 38 30 34 38 44 47 34 26 22 20 30 46 48 46 43 42 47 54 58 52 50 49 50 57 63 63 62 49 42 49 46 48 50 52 52 54 56 56 56 52
10 8 10 9 10 18 16 20 38 21 37 37 42 45 45 41 38 33 26 34 46 48 50 51 43 50 58 61 63 64 58 59 66 66 66 68 64 50 46 49 53 58 55 53 56 56 55 51 49
8 10 10 8 8 9 12 14 16 21 41 39 40 45 43 40 39 39 37 34 46 51 54 57 46 60 65 68 65 65 66 71 74 79 78 76 71 63 67 60 64 67 60 59 59 57 53 52 56
9 10 11 11 10 13 12 13 16 34 42 40 42 45 48 47 46 41 38 37 40 48 56 62 53 67 71 71 68 68 61 64 73 80 79 82 76 68 69 72 73 71 70 67 65 62 61 61 62
15 16 14 12 11 14 12 15 15 46 44 52 48 48 49 48 47 43 40 41 43 47 58 66 66 78 76 80 78 78 68 70 72 71 76 81 76 73 74 74 76 72 69 66 62 63 63 61 58
21 20 18 16 14 14 14 17 27 58 55 57 54 52 51 48 46 46 43 42 45 49 56 68 77 84 76 88 71 88 74 68 71 64 66 72 72 72 74 71 66 64 63 62 60 58 59 58 57
20 19 19 19 17 17 19 36 52 41 54 58 56 57 56 53 51 49 48 48 48 49 57 79 84 94 75 91 90 74 67 63 62 61 64 67 66 64 62 62 60 56 56 56 57 59 44 50 52
18 19 20 20 19 35 57 63 67 64 63 69 69 68 66 61 65 63 67 63 70 81 79 84 86 78 99 79 70 69 68 54 51 49 49 51 53 49 50 53 58 62 63 63 63 53 31 19 25
25 26 25 24 28 38 52 59 64 66 73 75 74 76 79 84 86 88 91 94 88 83 71 59 64 61 58 53 50 48 45 41 41 44 45 48 52 56 59 64 66 67 65 56 31 15 14 17 30
36 30 29 27 29 34 38 48 60 57 68 70 69 69 69 68 67 63 61 56 50 42 40 40 40 38 36 34 33 33 38 46 52 55 55 57 61 67 71 66 63 51 30 25 21 20 21 24 31
33 29 27 29 28 37 30 45 48 58 66 68 69 64 60 56 52 51 48 43 42 43 44 44 44 44 46 48 51 54 54 55 57 59 64 68 73 63 40 35 28 26 28 25 23 29 41 55 68
30 32 33 33 42 37 38 51 54 64 71 71 69 64 55 51 47 40 44 47 48 48 47 49 52 54 57 60 61 62 59 60 64 69 74 73 55 38 34 30 34 38 36 25 29 40 52 71 80
29 41 50 55 53 62 45 46 54 68 64 66 63 62 55 52 50 51 50 47 51 53 56 58 60 61 60 61 60 58 58 62 67 69 60 52 45 46 47 44 45 46 46 28 36 47 66 80 78
41 50 70 71 75 70 50 55 53 46 53 58 61 60 55 52 53 54 48 52 56 60 64 62 62 61 59 58 58 59 63 64 62 58 55 49 51 52 51 55 56 56 57 42 40 55 65 65 63
42 44 72 58 79 67 52 64 57 55 42 47 50 50 53 53 53 53 57 61 68 66 63 58 57 57 56 54 58 62 59 54 53 52 53 56 58 60 60 62 64 64 56 45 50 59 64 63 58
39 47 42 75 73 76 66 57 54 58 61 55 54 53 51 54 58 63 63 67 62 57 56 56 54 53 53 58 57 51 51 49 53 53 57 59 62 66 65 64 69 65 61 66 65 73 65 58 58
29 41 56 71 57 56 61 64 73 63 65 61 57 53 53 56 56 59 61 58 56 55 54 52 51 53 56 50 49 48 46 53 56 58 60 62 64 58 61 71 73 68 81 94 96 78 67 57 58
40 45 56 60 73 73 79 67 54 60 59 60 56 53 56 56 57 56 55 55 53 53 53 52 47 47 47 49 50 46 49 56 57 60 58 58 52 49 46 70 77 74 92 91 90 93 62 54 52
33 40 45 58 43 84 81 64 46 60 54 54 53 55 57 59 58 57 56 56 57 53 46 44 47 48 48 48 53 50 53 50 47 43 43 41 43 46 46 60 75 75 85 91 92 80 65 57 65

GFSSGP_850_rhum_042.txt.gz
RH
16 7 8 20 16 12 13 15 27 43 57 54 52 48 50 62 58 70 98 99 98 99 92 79 78 76 72 68 68 69 70 70 69 67 58 44 38 37 38 34 28 27 24 18 12 12 13 14 15
11 6 16 15 13 12 12 12 27 47 57 58 54 53 50 64 85 98 100 98 91 89 98 81 77 77 72 72 72 74 73 70 61 46 37 32 34 28 24 26 24 15 13 14 16 16 17 17 17
8 8 15 13 13 15 12 25 44 59 66 76 64 62 59 66 98 98 96 95 90 99 100 80 76 76 76 75 77 76 69 50 41 35 32 30 22 26 28 21 17 18 19 20 20 21 22 22 22
14 14 13 14 13 12 19 37 48 46 50 55 81 75 74 81 70 69 86 95 100 99 99 76 79 79 79 80 73 63 45 41 33 32 25 20 24 27 25 23 24 25 27 31 32 33 33 33 33
15 13 9 10 12 14 20 37 37 36 44 45 43 48 68 83 91 56 88 81 99 99 99 79 83 83 77 61 53 44 38 30 31 28 20 23 27 27 27 28 29 32 31 28 28 29 29 29 29
12 12 10 10 16 21 28 36 33 35 34 44 43 50 83 86 79 83 94 98 76 72 83 83 85 75 54 47 39 35 33 33 32 23 25 28 30 33 34 36 39 32 32 33 31 31 30 29 32
11 9 11 17 22 30 37 36 34 32 32 41 54 50 96 99 96 96 96 78 84 81 89 92 77 51 41 36 31 33 35 34 27 29 33 36 36 34 35 38 35 34 37 36 38 37 37 38 37
14 10 18 21 26 39 37 30 40 35 33 54 59 50 87 87 80 82 84 90 86 86 94 90 90 79 39 26 31 34 35 30 34 37 38 38 38 34 37 40 37 36 35 37 42 43 43 42 41
16 11 19 31 32 42 39 29 32 38 39 48 55 66 81 89 83 96 97 98 88 59 34 64 84 65 75 78 35 38 36 38 41 42 44 42 53 41 47 39 38 37 38 41 44 45 46 46 51
13 11 13 20 30 32 34 30 32 34 42 45 54 83 96 96 98 97 97 88 64 47 66 53 32 29 41 71 38 41 35 57 70 69 57 82 58 75 78 43 42 42 43 46 48 49 50 57 66
12 12 12 13 31 30 32 28 31 25 33 37 40 78 90 93 91 87 64 46 48 58 55 38 21 25 33 40 50 69 79 72 66 61 72 72 63 73 89 89 84 58 47 69 67 66 71 54 58
14 12 11 14 28 24 30 28 30 29 26 36 40 73 81 76 72 50 40 41 48 57 54 33 23 28 33 58 74 62 83 68 85 78 73 66 85 76 79 89 63 60 67 59 61 74 55 58 57
14 11 12 21 24 23 27 26 28 28 40 45 60 71 64 58 44 34 33 39 53 60 63 49 42 52 57 63 69 73 77 89 84 81 82 79 80 76 72 68 68 62 64 74 73 75 74 72 70
13 10 12 16 21 21 24 30 28 32 46 57 67 59 45 40 33 34 38 43 58 64 74 70 58 56 63 69 72 74 74 75 76 79 77 70 69 77 79 77 73 72 73 77 78 71 70 71 70
10 11 11 13 18 18 18 23 17 34 43 51 50 47 39 34 34 34 35 38 52 68 86 66 64 64 66 71 78 60 58 73 77 82 73 69 73 82 84 82 81 79 75 70 66 60 68 66 66
10 10 14 13 15 14 13 15 23 42 41 42 44 44 42 40 37 41 49 45 48 67 92 80 66 67 72 80 61 58 56 64 69 77 73 75 79 80 82 80 75 65 58 57 66 68 66 61 59
10 11 11 13 12 14 12 15 26 45 38 38 41 43 42 50 53 59 65 59 57 71 87 66 74 73 76 84 77 75 74 82 72 65 64 66 66 67 65 60 56 60 67 73 65 58 55 51 49
14 10 11 11 13 10 12 21 25 44 38 37 41 44 47 50 57 71 54 51 59 66 74 61 67 79 82 91 82 72 80 67 59 51 48 48 50 53 54 59 63 60 58 52 38 44 55 55 60
12 13 11 13 17 16 17 22 26 42 41 41 44 48 51 56 71 71 54 53 59 60 68 73 72 81 86 78 73 72 66 52 45 47 50 52 55 58 63 69 61 53 57 54 59 54 51 49 59
13 15 17 20 19 20 25 28 30 36 41 43 44 48 53 65 76 86 86 97 98 99 99 85 98 72 60 63 63 68 51 48 50 52 55 57 61 67 66 56 59 56 48 58 60 60 59 50 53
20 18 21 18 23 24 23 28 35 41 48 54 55 52 58 63 77 90 95 98 99 98 97 89 73 40 51 60 54 50 47 50 52 54 58 60 69 66 61 51 41 36 54 60 69 69 70 61 57
21 22 20 21 20 19 22 18 29 38 39 46 54 58 61 67 71 72 67 75 77 79 74 62 61 57 43 47 63 65 59 58 65 64 68 75 71 61 50 45 44 56 72 75 71 64 79 73 64
25 22 21 20 20 21 22 21 24 37 41 41 50 56 63 66 60 52 49 53 53 51 61 53 49 65 50 53 60 68 71 68 64 71 74 66 63 52 46 61 67 76 75 76 83 84 80 73 74
27 26 26 26 25 29 20 25 13 22 27 39 48 58 63 64 53 47 50 53 57 46 48 63 68 54 57 66 63 67 66 72 69 69 63 58 59 60 66 75 76 79 80 78 78 82 87 86 87
25 24 24 32 34 30 34 32 18 26 32 35 47 56 59 56 51 49 54 55 59 69 74 67 72 75 69 65 63 61 71 68 60 58 51 56 53 58 63 76 78 73 72 75 78 84 83 88 90
25 23 26 28 32 29 36 31 28 32 35 35 46 51 54 50 48 49 52 55 63 69 71 71 72 72 63 61 60 56 60 58 56 60 62 65 69 76 86 88 82 74 71 75 83 88 90 92 88
31 28 30 42 58 46 24 27 27 35 36 36 44 48 47 47 50 51 56 61 65 70 77 77 75 71 55 54 49 44 44 44 58 53 62 79 84 78 64 63 60 61 68 74 83 88 90 90 92
28 28 34 34 43 29 18 24 18 34 37 37 42 44 44 46 50 54 59 70 72 72 75 69 72 60 50 46 46 46 50 52 47 49 71 69 58 53 56 59 61 65 70 75 84 87 78 85 94
34 32 32 28 38 27 25 15 27 30 32 35 38 42 41 46 53 58 65 72 71 68 68 60 52 47 51 48 50 53 58 48 52 56 53 54 57 58 59 63 70 75 77 86 91 97 92 98 97
26 27 26 27 30 44 43 20 24 31 35 35 35 40 42 48 55 62 65 68 64 62 62 60 50 56 53 52 58 58 46 46 50 49 53 61 64 65 68 71 76 81 89 91 92 98 89 94 89

GFSSGP_850_rhum_045.txt.gz
RH
18 16 17 12 12 10 10 11 10 29 37 40 40 34 46 53 62 72 81 79 79 97 78 73 69 65 62 60 60 62 65 69 72 73 70 56 47 42 39 29 22 24 19 12 11 12 13 13 13
19 13 9 12 12 12 10 8 12 42 49 48 51 45 46 54 81 91 95 87 93 97 76 78 72 71 67 67 68 69 71 74 73 58 43 36 34 30 23 24 21 13 14 16 18 19 19 21 21
12 12 10 9 11 11 11 16 36 46 49 45 45 50 54 66 93 99 94 99 99 95 86 80 76 74 72 73 72 74 74 72 55 42 35 31 23 23 24 18 16 18 20 21 23 25 27 28 29
12 8 10 12 13 10 10 28 35 39 43 46 52 53 67 82 75 87 91 96 97 96 93 76 79 76 74 75 76 76 71 54 43 35 31 22 24 24 20 21 22 24 27 30 30 29 28 26 23
10 9 9 9 9 8 10 34 33 34 32 42 43 69 83 66 62 64 79 84 88 93 89 78 80 77 80 80 74 68 52 43 38 37 24 27 28 25 26 27 30 31 28 29 28 26 24 24 26
8 8 12 11 9 12 16 30 34 34 29 30 33 50 66 84 73 79 85 81 82 90 94 86 81 82 81 68 64 54 48 40 40 28 28 30 29 30 32 33 32 30 32 31 30 29 31 34 35
10 10 12 11 12 20 42 42 36 54 37 30 34 48 80 89 86 90 86 77 90 90 92 94 86 78 68 61 50 45 41 41 31 29 33 34 35 33 36 36 33 35 35 35 35 36 38 37 39
10 10 12 12 14 22 25 32 30 30 35 35 40 43 75 87 92 70 98 87 88 86 92 87 92 92 56 45 43 38 41 36 33 39 44 41 37 41 43 44 39 39 36 39 41 43 42 41 41
11 12 13 15 20 68 36 27 28 29 29 33 43 44 56 93 98 98 94 87 90 84 79 78 79 82 90 54 37 38 39 38 47 50 49 70 79 80 77 46 44 40 41 41 44 48 48 47 65
10 13 12 38 52 33 31 35 23 30 28 32 44 67 92 90 92 94 93 93 80 72 68 74 80 79 72 70 44 74 44 71 86 88 74 83 88 85 80 50 43 43 42 44 51 54 59 68 62
11 13 12 41 58 27 20 21 24 26 26 22 32 69 82 82 83 81 74 71 53 58 61 74 83 80 68 74 73 70 80 87 90 94 92 83 89 89 81 78 77 79 69 73 72 74 71 73 66
12 10 10 10 22 20 20 24 20 21 21 26 34 60 63 63 67 63 54 37 44 54 61 73 76 72 78 72 66 77 72 80 80 84 82 94 92 82 83 79 80 72 74 79 76 73 81 78 78
10 11 11 17 20 20 24 45 55 19 22 23 48 53 54 56 53 36 29 36 48 52 59 66 71 54 76 83 83 83 84 83 83 85 82 80 80 72 71 84 82 84 77 74 77 77 77 76 73
10 14 17 22 23 21 22 31 21 26 27 37 47 45 42 39 29 27 32 43 49 54 64 72 77 83 89 96 98 99 84 97 97 87 79 81 75 72 96 95 87 81 83 83 80 80 75 71 69
11 20 19 18 20 20 21 19 19 26 29 37 39 36 31 25 26 29 34 44 51 60 70 80 87 92 98 98 90 74 65 72 79 74 70 68 89 96 95 96 88 83 79 71 62 65 67 65 61
13 11 21 15 17 17 19 18 17 27 28 28 28 25 23 23 26 29 31 38 52 63 80 86 94 97 97 78 61 65 64 64 66 78 72 71 71 75 83 82 76 64 67 73 74 63 57 53 50
11 15 16 16 14 12 15 13 18 24 25 27 28 27 25 28 26 32 38 38 44 67 84 98 95 93 70 65 70 59 62 68 61 74 65 63 53 62 61 60 58 64 69 64 63 59 55 51 49
13 13 12 14 13 10 10 14 19 24 23 27 28 29 29 33 36 45 49 46 46 66 86 99 100 86 72 69 73 81 69 76 70 61 55 49 50 48 64 78 77 63 62 64 67 65 56 52 47
11 9 10 8 8 9 9 13 18 22 22 24 29 31 32 38 44 59 60 61 55 73 92 100 93 70 79 86 64 79 81 66 56 60 48 53 66 68 62 68 66 64 57 60 63 65 60 56 51
10 13 11 11 10 14 11 14 16 22 23 22 26 32 37 41 53 61 69 74 78 96 100 100 95 97 98 88 83 76 68 64 66 73 72 72 58 63 66 64 65 64 61 57 62 69 66 61 55
12 13 23 14 14 12 14 16 22 21 22 26 27 29 34 42 52 67 74 81 94 99 98 100 95 83 74 64 62 64 65 68 66 71 72 76 63 64 66 68 67 62 58 59 67 67 65 61 61
17 16 14 15 18 18 15 18 19 23 27 32 35 35 37 44 54 66 71 92 98 96 87 74 66 61 60 60 59 60 55 59 63 64 66 73 74 70 67 63 65 69 69 68 65 61 70 68 64
23 17 16 14 14 16 18 15 23 22 25 30 33 39 42 50 56 60 64 68 67 69 62 55 56 57 64 65 61 65 61 64 65 67 75 74 71 65 62 64 68 68 67 67 70 70 71 70 75
19 19 18 16 16 25 16 17 14 20 19 23 30 38 45 50 51 47 50 52 56 63 60 60 59 61 68 71 72 68 72 65 62 66 65 58 52 50 52 57 62 67 67 65 64 66 67 72 78
18 20 33 31 25 28 21 21 14 14 21 18 30 39 47 49 45 41 42 43 52 60 65 65 61 64 71 76 77 75 72 67 61 59 53 50 49 50 54 67 70 66 65 65 63 64 67 74 88
19 18 24 27 25 21 22 17 22 21 26 25 32 40 48 49 43 40 42 42 51 62 67 65 63 66 74 76 72 71 65 55 56 54 59 60 59 62 66 71 68 59 58 59 61 63 67 78 90
21 21 21 27 47 36 16 15 25 24 26 27 33 40 46 46 42 40 43 45 50 60 64 67 63 66 70 71 71 66 65 60 58 61 64 65 70 62 52 53 56 57 58 62 64 63 67 83 86
21 20 26 24 36 27 13 13 17 23 24 26 30 38 43 42 40 40 42 48 53 60 66 72 68 67 68 70 66 63 59 60 63 67 68 64 56 52 51 54 57 59 62 65 65 65 70 87 85
25 24 21 21 25 31 22 16 14 17 20 25 28 35 39 40 40 41 44 51 58 63 69 75 68 68 64 63 53 52 62 62 65 59 51 49 54 55 56 58 59 61 64 63 72 88 87 93 90
20 20 21 30 25 28 38 21 15 18 18 22 25 32 35 38 39 42 46 54 63 64 65 68 66 60 62 62 68 66 62 56 52 47 47 54 59 62 62 63 66 69 66 69 87 89 97 93 94